Theta_e
344 334 331 335 340 346 347 349 352 352 352 349 349 350 351 353 354 357 355 356 355 354 352 349 348 349 349 348 348 351 350 350 350 348 345 345 345 345 346 345 345 344 343 344 344 344 342 339 337 336 336 335 335 337 340 340 341 341 342 342 342 343 343 342 342 342 342 342 342 342 342 343 343 343 344 343 343 343 343 342 343 343 344 344 343 339 337 337 336 337 337 340 342 342 343 343 343
343 334 331 337 341 347 349 350 354 353 350 347 348 351 353 355 355 356 356 356 355 353 350 348 349 350 350 349 350 349 349 350 349 348 347 345 344 345 344 344 343 343 344 344 345 343 341 338 335 336 338 339 340 340 340 341 342 342 342 343 343 342 342 342 342 342 342 342 342 342 343 343 343 343 344 343 343 343 342 343 343 343 344 344 343 340 337 337 337 336 336 339 343 343 343 343 343
342 336 335 340 344 348 350 351 353 350 347 346 346 352 356 356 356 356 355 355 355 352 349 350 351 351 350 348 350 350 349 349 347 346 348 346 344 345 344 343 343 343 344 345 345 341 340 338 336 340 341 341 341 341 341 342 342 342 342 342 342 341 342 342 342 342 342 342 343 343 343 343 343 344 344 344 344 343 342 343 344 344 344 344 343 341 339 338 337 337 336 338 343 343 343 343 342
342 339 340 345 348 349 352 354 355 350 346 346 346 353 356 355 356 354 355 356 354 351 349 352 352 352 351 349 350 350 350 348 347 346 348 346 344 344 344 342 342 342 343 344 343 340 340 338 339 342 342 341 341 341 342 343 342 341 341 340 340 340 341 342 342 342 342 343 343 343 343 344 344 344 344 344 344 344 343 343 344 344 344 344 343 343 341 338 337 337 338 339 341 342 342 342 343
342 341 343 348 351 351 354 355 355 350 347 348 348 352 355 355 354 353 355 355 353 351 350 352 352 352 352 351 351 351 350 348 347 346 347 346 343 344 344 342 342 342 344 345 341 339 340 338 340 341 341 340 340 342 343 342 342 341 341 342 342 343 343 343 343 343 343 344 343 343 344 344 344 343 343 343 344 343 343 343 344 343 343 343 342 342 342 339 337 338 340 340 341 342 342 342 342
342 340 344 349 350 352 355 353 351 349 349 351 351 353 355 354 355 354 355 355 353 352 350 352 352 352 352 351 351 350 350 348 347 347 347 346 343 343 343 341 341 343 345 343 340 339 339 339 340 340 340 340 341 342 342 342 343 343 343 344 344 344 344 344 344 343 343 344 344 344 344 344 343 343 343 344 344 343 343 343 344 344 343 343 342 342 343 342 337 337 340 342 342 343 342 342 342
344 342 344 349 351 352 355 351 348 349 350 352 352 352 354 355 356 354 354 354 353 353 351 353 353 353 352 350 350 350 350 347 345 347 346 344 343 343 343 341 341 344 345 341 339 339 338 338 339 340 341 341 341 342 342 343 344 344 344 344 344 344 344 344 344 344 344 344 343 344 344 344 344 343 344 344 344 344 344 344 344 344 343 343 342 342 343 343 339 336 338 341 343 343 342 343 343
345 347 346 351 354 353 353 350 349 351 351 352 353 353 353 354 356 354 353 354 353 352 352 353 353 353 351 351 351 350 350 345 343 346 345 343 343 343 343 342 342 345 343 338 338 339 338 339 340 341 342 342 342 342 343 344 344 344 344 344 344 344 344 345 344 344 344 343 344 344 344 344 344 344 344 344 344 344 344 343 343 343 344 344 344 343 343 344 341 337 336 339 342 343 342 342 342
346 351 350 352 355 352 350 349 350 351 352 352 353 355 355 354 355 353 352 353 353 353 354 353 353 353 351 351 352 350 350 345 342 344 344 343 343 344 345 344 342 342 340 337 337 337 339 340 340 341 342 342 342 343 343 344 344 344 344 344 344 344 344 344 344 343 344 343 343 344 344 344 344 344 344 344 343 343 343 342 342 343 343 343 344 344 343 343 342 339 336 338 340 341 342 342 342
348 352 353 353 353 350 347 347 350 350 352 353 355 356 355 353 354 353 352 353 353 354 353 352 352 353 352 352 351 351 349 344 341 343 343 343 343 345 346 345 342 340 337 336 334 336 341 340 340 342 342 342 342 344 344 344 344 343 343 344 344 343 343 343 343 343 343 343 343 343 344 344 344 344 344 344 343 343 343 342 342 342 342 342 342 342 343 343 342 341 340 340 340 340 341 341 341
352 352 353 353 352 348 345 347 349 351 352 354 356 357 355 353 354 353 353 353 353 354 352 352 353 353 352 352 351 350 349 344 340 343 343 342 343 343 344 344 343 338 335 335 333 335 341 341 341 341 341 341 342 344 344 344 344 343 343 344 343 342 343 344 343 343 343 343 342 343 343 342 342 343 343 343 344 343 343 343 342 342 342 342 342 342 342 342 341 341 341 341 341 341 341 341 340
354 354 353 352 350 348 348 348 351 352 352 353 355 357 355 353 353 352 353 353 353 354 352 353 353 352 351 351 351 349 348 344 341 343 342 341 343 342 343 344 343 338 334 334 331 336 341 341 341 341 341 340 341 343 344 345 344 343 344 344 343 342 343 344 344 343 343 342 341 341 341 341 340 340 341 342 342 342 342 343 342 342 343 342 343 342 342 341 340 341 342 343 343 342 342 341 341
355 354 352 351 350 349 349 350 351 353 352 354 354 357 355 353 354 353 353 353 353 353 352 352 352 352 350 351 351 348 348 345 343 344 343 341 342 342 342 342 341 338 335 331 330 336 340 341 342 341 340 340 340 342 344 344 344 344 343 343 342 342 343 343 343 343 342 341 341 340 340 339 339 338 339 339 340 341 343 343 342 343 343 343 342 342 342 341 341 341 342 342 342 342 342 342 342
354 353 352 353 351 351 351 350 350 351 350 352 355 357 355 354 355 353 354 353 352 353 351 351 351 351 351 351 350 347 347 346 344 345 344 342 342 342 342 342 340 339 335 329 332 338 339 341 342 340 340 340 341 341 343 344 344 344 343 342 342 343 343 343 343 341 341 340 340 340 339 339 339 338 338 338 339 340 342 342 342 343 343 342 343 342 342 342 342 342 342 341 341 341 342 341 342
354 353 352 353 351 350 351 350 350 349 348 352 356 357 356 355 355 354 354 352 353 353 351 350 350 350 351 351 350 348 347 346 345 346 345 343 341 342 342 342 341 340 336 329 333 339 340 341 342 341 340 341 342 341 342 344 344 343 342 342 342 343 343 342 341 341 341 341 341 341 340 340 339 339 339 338 339 339 340 340 341 342 342 342 342 342 342 342 342 342 342 342 342 341 340 341 342
353 352 353 353 350 349 349 351 350 348 348 352 356 356 355 354 354 355 355 353 354 351 351 351 349 349 350 351 350 348 347 346 346 346 346 344 341 341 342 341 341 341 335 331 337 339 339 341 342 341 341 342 343 341 341 341 340 340 341 342 342 342 342 341 341 340 341 341 341 341 342 342 342 341 341 341 340 339 339 340 341 342 342 342 342 341 342 342 342 343 343 343 343 343 342 342 342
351 352 353 352 350 349 349 350 349 345 348 353 356 356 353 353 353 354 353 353 353 351 352 351 350 349 350 351 349 347 347 347 347 347 347 346 343 342 342 341 342 341 337 336 340 339 339 341 342 341 341 342 343 341 341 340 339 339 340 341 341 341 341 340 340 341 341 341 341 343 343 344 343 342 343 343 340 339 340 341 341 342 342 342 342 341 341 342 342 343 343 343 344 344 344 343 342
351 353 352 350 351 351 349 349 348 345 349 354 356 356 353 352 354 354 353 353 353 352 352 351 350 349 349 350 348 347 347 347 347 348 347 347 344 342 342 342 343 342 339 340 340 339 339 340 341 341 341 342 342 342 341 340 339 339 340 341 341 341 341 340 340 341 341 342 343 343 344 343 342 342 344 342 339 340 341 341 341 340 341 341 341 341 341 342 342 342 343 343 343 343 343 343 342
351 352 351 351 352 352 349 349 348 346 349 354 356 355 354 353 354 354 353 353 353 352 352 351 351 350 349 349 347 346 347 348 347 347 347 347 345 341 342 341 342 341 339 340 339 339 339 336 339 340 341 342 342 342 342 341 340 340 340 340 341 342 341 340 340 340 341 342 342 342 342 341 340 341 341 338 338 341 341 341 341 341 341 340 341 341 342 342 343 343 342 343 342 342 342 342 342
350 350 351 352 351 351 351 351 351 348 349 353 356 354 354 354 353 354 353 353 352 352 352 351 352 350 350 349 347 347 348 347 347 347 347 347 345 340 339 339 342 340 337 338 338 340 339 333 334 336 339 343 341 340 341 342 342 341 341 340 341 342 341 339 338 339 339 340 339 339 339 338 338 337 338 337 339 341 342 342 342 341 341 340 341 343 342 343 343 343 343 343 342 341 341 342 342
349 349 351 352 350 350 352 351 350 349 350 353 355 354 353 353 352 354 354 353 352 352 353 352 352 350 350 349 348 347 347 347 347 347 346 346 344 340 339 338 340 339 337 337 336 340 337 330 331 332 334 338 337 335 338 342 343 341 341 339 338 338 338 336 337 337 337 336 334 335 335 336 337 336 338 339 340 342 343 343 342 342 342 342 342 344 344 343 344 344 344 345 345 343 341 341 342
348 349 350 351 350 350 351 351 348 349 350 353 354 352 352 353 352 354 354 354 353 353 354 351 350 349 349 349 348 347 347 347 347 346 345 345 342 340 339 338 339 339 338 336 333 336 333 328 330 330 330 333 333 332 333 336 338 337 337 336 334 332 333 333 334 335 334 333 333 333 334 335 337 338 339 340 342 343 343 343 343 343 344 344 345 345 345 345 346 345 345 345 346 345 343 341 343
347 349 350 351 350 351 352 351 348 347 349 351 352 352 352 353 352 353 354 353 354 353 353 352 350 348 347 347 347 347 347 347 347 347 345 343 340 339 338 337 338 339 337 332 330 332 331 327 329 329 329 329 330 331 329 329 330 330 332 334 332 330 331 332 334 335 335 335 336 335 335 336 337 338 339 341 343 344 344 344 344 344 345 345 346 346 346 346 346 347 347 347 346 346 345 343 343
346 347 347 348 349 349 350 349 346 344 345 348 350 351 352 352 351 352 353 353 352 352 352 352 350 348 346 347 348 348 347 347 347 347 345 342 339 337 338 336 337 338 334 331 330 331 330 327 327 327 328 328 328 329 328 326 326 327 330 333 332 331 333 335 336 338 339 338 338 337 337 338 338 338 340 342 343 344 344 344 344 344 345 345 346 346 346 346 347 347 347 348 347 346 347 345 344
343 345 345 345 346 345 345 343 342 342 343 347 349 351 351 352 352 351 352 353 352 351 351 352 350 348 347 347 348 348 348 348 348 347 345 344 341 340 339 338 339 338 334 330 328 329 329 327 326 327 326 326 326 326 326 326 326 326 328 332 334 334 335 338 339 339 339 339 339 338 339 340 340 340 341 342 344 344 345 345 345 345 345 346 346 346 346 346 347 347 348 348 347 347 347 347 346
341 344 345 343 343 343 342 341 342 341 342 347 348 349 351 352 350 351 352 352 352 352 351 352 350 348 348 347 348 347 348 347 348 347 345 344 343 341 340 339 339 338 332 328 326 327 328 327 326 327 326 326 326 326 326 326 325 325 326 328 333 335 337 338 339 340 339 339 340 339 339 342 343 343 342 343 344 345 345 344 345 346 346 346 346 346 347 347 347 347 348 348 348 348 347 346 346
338 340 342 342 342 341 342 342 341 340 341 345 346 345 349 351 349 350 352 352 352 352 352 351 350 349 348 348 348 347 347 347 346 346 346 345 344 340 337 337 338 337 332 328 327 327 327 327 326 326 326 326 326 326 326 325 325 325 326 326 328 333 337 338 339 339 340 340 340 338 338 341 345 345 344 344 344 346 346 345 345 345 346 346 346 346 347 347 347 347 346 346 347 347 346 346 346
336 336 337 337 339 339 339 339 339 339 340 343 344 344 347 349 349 348 350 352 352 352 352 351 351 350 348 348 348 347 347 347 346 347 346 345 344 340 337 336 337 338 333 327 326 326 326 326 326 326 326 326 326 326 326 326 325 325 326 326 326 328 333 338 339 339 340 340 340 339 338 340 344 345 345 345 345 346 346 346 346 346 346 346 346 346 346 347 347 347 347 346 345 345 345 345 345
333 334 335 335 335 336 337 337 337 339 338 342 343 343 345 348 347 348 350 352 352 352 352 352 351 351 349 348 348 347 347 347 346 347 345 344 343 340 337 336 336 337 332 328 326 326 325 326 326 326 326 326 326 326 326 326 326 325 325 326 327 326 327 332 338 339 340 340 341 341 339 339 342 344 345 345 345 345 346 347 347 347 347 347 346 345 346 347 347 347 347 346 345 344 345 345 344
331 332 333 335 335 335 338 337 337 338 339 342 343 340 343 346 346 348 350 351 353 352 353 353 352 351 350 350 349 347 346 346 345 345 345 344 342 340 338 335 335 336 334 330 327 326 325 325 326 325 325 326 326 326 326 325 325 325 325 326 327 327 325 327 332 338 340 341 342 342 342 342 343 344 343 344 346 346 346 346 346 347 347 347 347 345 347 347 346 346 346 345 345 344 344 344 342
329 329 330 332 332 334 337 337 338 339 339 342 342 337 340 344 345 347 350 352 354 353 354 353 352 352 351 350 349 348 348 346 344 343 343 342 341 340 338 337 335 336 336 332 329 327 325 325 325 326 325 326 326 326 325 326 326 325 325 326 327 327 327 326 327 333 339 341 342 343 343 344 345 345 344 344 346 346 346 346 346 346 347 347 347 345 346 347 346 345 344 344 345 344 343 342 340
327 325 325 330 329 332 337 336 337 340 339 342 341 336 340 342 344 348 350 351 353 353 354 353 352 353 352 351 350 349 348 347 345 344 344 343 342 339 339 338 336 336 337 335 332 328 326 325 325 325 325 325 326 326 325 325 325 325 325 326 327 328 328 327 326 329 335 339 341 343 344 345 345 346 346 346 346 346 346 346 347 348 347 348 348 346 346 347 345 345 344 344 345 344 341 340 340
327 323 323 328 329 331 335 335 336 338 339 342 341 338 341 342 344 349 351 352 353 354 355 353 352 352 352 351 350 349 349 349 349 347 345 343 342 340 339 339 338 339 339 339 336 331 327 325 325 326 326 325 325 326 326 325 325 325 325 326 327 329 328 328 327 328 332 336 340 342 344 345 345 346 347 347 347 347 347 347 348 348 348 348 347 346 346 346 345 344 345 344 344 343 341 340 341
325 325 323 327 330 330 332 334 335 336 338 341 342 340 341 341 345 351 351 351 353 353 355 354 353 353 352 352 351 350 349 349 349 348 346 344 343 342 341 341 341 340 340 340 339 335 330 326 324 325 326 326 326 326 325 325 325 326 327 327 327 329 330 329 327 327 330 334 338 340 342 344 345 345 346 347 347 348 347 347 348 348 347 347 347 347 346 346 347 347 347 346 344 344 343 341 341
323 325 324 325 329 330 331 334 334 334 336 339 341 342 340 341 346 351 352 352 353 353 355 354 354 353 352 351 351 351 350 349 349 347 345 342 341 341 341 341 341 340 341 341 340 338 334 329 325 324 325 326 326 325 325 325 325 327 328 329 329 330 330 330 329 327 329 333 336 339 342 342 343 344 344 345 345 346 347 347 347 347 346 347 347 348 347 346 347 348 349 347 343 343 343 342 341
325 326 326 325 326 328 331 333 333 334 336 337 340 341 341 341 345 350 352 353 352 353 354 355 354 353 353 352 352 351 350 349 348 348 346 343 341 340 340 340 340 339 339 339 339 337 335 330 326 325 325 325 325 325 325 325 325 327 330 330 330 331 331 331 330 327 328 332 335 337 341 342 341 341 342 342 341 342 344 345 347 346 345 346 347 349 349 347 346 346 348 347 343 343 343 342 341
326 327 328 327 326 328 331 331 330 333 335 336 339 340 340 341 343 348 352 353 353 353 355 355 355 354 353 353 352 351 351 350 350 349 349 346 344 342 341 340 340 340 339 338 337 338 336 333 329 327 325 325 325 325 325 325 325 327 329 329 330 331 332 333 332 329 327 331 334 337 341 343 343 342 341 340 340 339 340 342 343 344 344 343 345 348 348 346 346 346 347 347 345 343 343 342 341
325 326 326 327 327 328 331 330 329 331 332 334 337 338 338 339 341 347 351 352 352 353 354 354 355 354 353 353 352 352 351 351 351 351 350 349 348 346 343 342 341 341 340 338 337 337 337 336 335 333 329 327 325 325 325 325 326 326 328 329 329 331 332 333 333 331 328 329 334 338 342 344 344 344 342 341 340 339 341 340 339 340 341 341 342 346 347 346 347 347 346 346 346 345 343 343 342
323 324 324 325 327 327 329 329 329 330 331 333 335 335 336 337 339 345 350 351 352 352 354 354 355 354 354 354 353 353 352 351 352 351 350 350 350 349 347 345 343 341 341 340 339 339 338 338 339 338 337 334 329 326 326 326 326 327 328 329 330 331 333 334 335 334 330 328 333 339 343 344 345 344 343 342 342 342 343 342 341 339 339 340 340 343 346 347 346 347 347 347 346 345 345 343 342
321 323 323 324 326 326 327 328 328 328 329 332 334 333 334 337 338 343 349 351 352 353 353 354 354 354 355 354 353 353 353 352 352 352 351 351 351 351 349 347 345 343 344 343 341 340 341 341 342 342 341 339 334 329 328 327 328 329 329 331 331 332 334 335 336 336 332 328 331 338 342 344 345 344 344 342 342 343 343 343 342 340 338 338 339 341 344 345 346 346 347 347 346 346 347 345 343
319 321 323 324 326 325 325 326 327 327 328 329 331 330 331 335 336 339 346 351 352 352 352 352 353 354 354 354 353 353 353 353 353 352 351 351 352 352 351 350 348 345 346 346 343 342 343 344 344 344 344 343 339 335 332 330 330 330 331 332 334 334 335 337 337 337 334 329 330 336 341 344 345 344 343 342 342 342 342 342 341 340 338 338 338 340 342 343 345 346 347 347 346 346 347 346 344
318 319 322 324 327 327 326 327 326 325 326 328 329 326 328 334 335 337 343 350 351 351 352 352 353 353 354 353 354 354 353 353 352 352 352 352 352 352 352 352 350 347 347 347 347 345 345 346 346 347 347 346 344 342 339 336 333 331 332 333 335 335 336 337 337 337 335 331 331 334 338 342 343 343 342 342 341 341 342 342 341 340 340 339 339 340 341 340 343 346 347 347 346 346 346 346 344
316 319 322 323 326 327 327 327 326 323 324 327 327 325 326 331 333 335 343 349 350 350 351 351 352 352 353 353 353 353 353 353 353 353 352 353 352 352 352 351 350 348 347 348 348 347 347 347 347 348 349 348 347 345 343 341 337 333 332 333 335 334 336 336 336 336 336 334 333 334 337 341 342 342 341 340 340 340 341 342 341 340 340 339 339 339 340 340 342 344 346 347 346 345 345 345 344
316 321 323 323 324 326 327 327 325 324 325 326 326 326 324 325 331 337 342 346 349 351 351 351 353 352 352 352 352 353 353 353 352 353 353 353 352 352 351 350 349 348 348 348 348 348 348 348 348 349 349 349 347 345 343 341 339 336 334 333 334 335 336 337 337 337 336 335 335 336 337 340 342 341 339 338 339 339 340 341 341 340 339 339 338 337 337 339 341 342 345 346 346 345 345 345 344
319 324 325 324 326 327 328 327 326 326 325 324 325 325 323 322 328 336 340 343 347 351 352 350 352 352 352 351 352 352 352 352 352 352 352 353 352 351 350 349 349 349 349 348 348 348 347 348 349 350 349 348 347 344 342 340 338 337 335 334 334 335 337 337 337 337 336 336 337 338 339 340 341 341 339 338 339 339 339 339 340 340 339 339 337 335 335 338 340 341 343 345 346 345 346 345 344
321 325 325 325 326 327 328 328 326 326 325 324 325 324 323 323 325 331 337 339 342 348 350 350 352 352 352 352 351 351 352 352 352 351 351 352 351 351 350 351 350 350 348 348 347 348 347 348 349 349 349 349 348 346 345 342 340 339 338 337 336 337 337 338 338 337 337 336 337 339 340 341 341 341 340 339 338 339 339 339 337 338 339 339 338 337 336 337 339 340 342 345 347 347 347 346 345
322 324 325 325 326 327 328 327 326 325 325 325 325 324 323 323 324 328 334 336 339 343 347 349 351 352 352 352 351 351 351 351 351 351 351 352 352 351 351 352 351 350 349 348 348 348 348 348 348 349 349 349 349 349 347 345 342 341 340 339 339 338 339 338 338 338 337 336 337 339 340 340 341 341 340 339 339 339 339 339 337 337 338 339 339 339 338 338 339 339 342 345 347 347 347 346 345
322 323 324 323 323 324 325 324 324 325 325 325 325 325 323 321 325 328 333 335 336 338 342 346 349 351 352 352 352 351 351 351 351 350 351 351 351 351 352 352 351 351 351 350 349 348 349 349 349 349 348 348 349 349 349 348 346 344 342 340 339 339 339 339 338 337 336 335 336 340 340 341 341 341 340 339 339 340 340 339 338 337 337 338 339 339 339 339 339 339 341 345 347 346 346 346 345
322 322 322 320 321 322 322 323 322 323 324 324 324 325 322 323 326 329 331 332 332 335 338 342 346 350 352 351 352 352 351 351 350 350 350 351 351 350 351 351 351 350 351 349 349 349 349 350 349 349 348 349 349 349 350 349 349 347 344 341 340 339 338 338 338 337 336 335 336 339 340 341 341 340 339 338 338 339 339 339 338 337 336 337 338 338 338 339 339 339 340 343 345 346 346 346 345
321 321 320 320 320 322 322 322 322 321 321 322 323 324 322 323 326 329 330 329 330 334 337 339 343 346 349 349 351 351 351 352 351 351 350 350 351 350 350 350 350 349 349 349 349 349 349 349 349 349 349 348 350 350 350 349 349 348 346 345 343 341 339 338 338 337 335 335 336 338 340 340 340 339 338 337 338 338 339 338 338 338 336 337 337 338 338 338 339 339 339 341 343 345 346 346 346
323 323 322 321 320 321 321 321 320 320 319 319 322 322 321 322 326 329 329 330 331 332 333 336 340 343 344 347 350 351 351 351 350 351 351 350 350 350 349 350 349 349 349 349 349 349 349 349 349 349 349 349 350 350 350 350 349 349 348 348 346 344 341 339 339 339 337 336 337 338 339 339 339 339 338 337 337 338 338 338 338 338 337 337 337 337 337 338 338 339 339 339 341 343 345 345 346
324 325 323 321 322 321 320 320 320 319 317 318 319 321 323 325 327 328 327 329 330 330 332 335 338 342 343 345 348 350 350 351 351 351 350 350 350 349 349 349 349 349 349 349 349 348 348 348 349 349 348 349 349 350 350 350 350 350 349 348 347 346 344 342 341 340 339 338 338 338 338 338 339 339 338 337 337 337 338 337 337 337 337 337 337 336 337 337 337 338 338 338 339 341 343 344 344
323 323 322 323 325 323 320 319 321 320 318 319 319 319 321 323 325 327 327 327 328 329 330 332 335 340 343 344 346 347 349 350 350 350 349 350 349 349 349 349 349 349 349 349 349 347 347 348 349 349 349 348 349 349 349 350 350 350 350 348 347 346 345 343 342 342 342 341 340 339 339 338 338 338 338 338 338 338 338 338 337 337 337 337 336 336 336 336 337 337 337 338 338 340 342 343 343
323 322 322 324 326 325 322 320 321 320 319 320 318 316 317 318 322 327 328 327 328 329 329 329 333 339 342 343 344 345 347 349 348 348 349 349 349 349 349 349 348 348 349 349 348 347 346 347 347 348 349 348 348 349 349 349 350 350 350 349 347 346 345 344 343 343 343 342 341 341 340 339 338 338 338 338 338 338 338 338 338 337 337 336 336 335 335 336 336 336 337 337 337 338 339 341 341
323 323 325 325 322 323 323 322 322 321 319 320 319 317 317 317 320 325 328 329 329 329 329 329 330 336 340 341 343 344 345 348 348 349 349 349 349 349 348 349 349 349 349 348 348 347 347 347 347 348 348 347 347 348 349 349 349 349 350 349 348 348 346 344 344 344 343 343 342 341 341 339 338 338 338 337 338 338 338 338 338 338 337 336 335 335 335 336 336 336 336 337 337 337 337 338 339
324 324 325 325 323 322 323 323 322 321 321 321 319 318 317 319 322 324 326 330 330 331 333 332 331 334 339 340 343 345 345 346 346 347 349 348 348 348 348 348 349 348 349 348 348 348 348 347 348 348 348 348 348 348 348 349 349 349 349 349 348 348 347 346 345 343 342 342 341 341 340 339 338 338 338 337 337 337 337 337 338 338 338 336 334 333 334 336 337 337 337 337 337 336 336 336 337
322 322 323 324 323 323 324 324 322 321 321 321 321 319 318 322 327 325 325 329 331 332 334 335 334 335 337 340 342 343 343 343 344 345 348 348 348 348 348 348 349 349 349 348 349 348 349 348 348 348 348 349 348 348 348 348 348 349 349 348 347 347 347 348 347 345 343 341 340 339 339 338 338 337 337 337 337 337 337 337 337 338 338 336 334 332 333 335 337 338 338 338 337 336 336 336 336
319 320 322 323 323 322 322 323 322 321 321 321 321 319 319 323 329 328 325 328 330 332 334 335 335 335 335 338 340 340 340 341 342 343 346 347 347 347 349 349 349 350 349 348 349 349 349 349 348 348 348 349 348 348 348 347 348 348 348 348 347 347 347 347 348 347 345 343 341 339 339 339 338 337 337 337 336 336 336 336 337 337 337 336 333 333 333 333 336 337 337 337 337 337 336 336 336
Wind_Speed
9 13 14 14 14 13 10 6 2 2 2 2 2 2 1 2 2 3 6 6 5 6 8 13 17 13 7 5 7 7 6 4 1 1 4 15 29 29 27 29 28 27 27 23 22 21 18 17 16 15 14 13 14 14 15 15 15 14 14 14 14 15 15 15 15 15 14 14 13 13 13 13 13 12 13 13 12 11 11 10 10 9 9 9 10 10 10 9 9 9 9 9 9 10 11 11 10
10 15 15 13 14 10 6 5 1 1 2 2 1 1 1 3 4 4 6 7 6 9 14 18 15 8 7 10 10 8 8 5 4 6 13 28 33 28 29 29 28 29 26 24 22 21 18 17 16 15 14 14 14 15 16 16 15 15 15 15 15 15 15 16 16 15 15 14 14 13 13 13 13 12 12 12 11 11 10 10 10 9 9 9 10 10 10 10 9 9 9 9 9 10 10 10 10
11 16 17 14 12 6 2 4 2 0 1 1 0 1 2 3 4 5 6 7 10 15 18 18 12 8 10 12 6 4 5 4 7 14 21 32 34 29 30 28 29 29 26 24 22 22 19 17 17 15 15 15 16 16 16 16 15 15 15 14 14 15 15 16 16 16 15 15 14 14 13 13 13 13 12 11 10 10 10 10 9 9 9 9 10 10 11 11 10 10 9 9 9 9 10 9 9
11 15 17 14 9 5 2 3 1 0 1 1 0 1 2 3 6 7 8 11 15 18 19 16 10 5 6 9 5 5 6 5 9 19 26 30 32 33 30 29 30 29 26 24 23 22 19 18 17 16 15 15 16 17 16 15 15 15 15 14 15 15 15 16 16 16 15 15 14 14 14 13 13 13 12 11 10 10 10 10 10 9 9 9 9 9 10 11 11 10 10 10 9 9 9 9 8
11 14 16 11 5 3 1 2 0 1 1 0 1 1 2 4 8 8 11 13 16 17 18 13 7 5 6 7 3 4 7 8 12 20 25 26 32 35 31 31 31 28 25 23 24 22 19 18 17 16 15 16 17 17 16 15 16 16 16 16 16 16 16 16 16 15 15 14 15 14 14 13 13 12 11 11 11 11 11 11 10 9 9 9 9 9 10 11 11 10 10 10 9 9 9 8 8
11 13 14 7 5 3 2 1 1 2 1 1 1 1 3 6 9 11 14 14 13 15 15 10 8 9 8 7 4 5 7 9 16 19 23 29 35 35 32 33 31 27 24 23 24 21 19 18 17 16 16 17 17 17 16 16 16 16 16 16 16 16 16 15 15 15 14 14 14 14 13 13 13 12 11 11 12 12 11 11 11 10 10 9 9 9 9 10 11 10 10 10 9 9 10 9 9
12 12 11 6 6 4 2 1 2 2 1 2 2 1 5 8 11 14 15 13 12 11 10 9 12 12 7 4 5 6 5 8 19 21 27 35 36 34 33 33 31 26 23 25 24 22 20 17 18 17 17 18 17 17 17 17 16 16 16 16 15 15 15 15 14 14 14 14 14 14 14 14 13 13 12 12 12 12 12 11 11 11 11 10 10 9 9 10 10 10 9 10 9 9 9 9 9
11 7 8 5 2 2 2 2 2 1 1 2 1 2 7 11 13 13 14 12 11 11 10 12 12 8 5 4 5 4 3 10 24 28 34 38 36 34 33 31 30 26 24 26 24 22 20 18 18 17 18 18 18 18 17 17 16 15 15 16 15 15 15 14 14 14 14 14 14 14 14 14 14 13 13 13 13 13 12 11 12 12 11 10 10 9 9 9 10 10 10 9 9 9 9 9 9
11 5 5 3 1 0 2 2 2 2 2 1 1 4 9 12 13 12 12 11 11 12 11 12 8 5 7 7 7 5 4 13 29 35 38 38 36 33 31 30 30 28 26 26 24 22 20 19 19 18 18 18 18 18 17 17 16 15 15 15 16 15 15 14 14 14 14 14 14 14 14 14 14 13 14 14 13 13 12 12 12 12 12 11 10 10 9 9 9 10 10 9 8 9 9 9 9
10 5 2 1 1 2 2 1 1 1 1 1 3 7 11 12 12 11 11 11 12 12 10 9 6 8 11 9 7 5 6 18 32 36 37 37 35 33 30 29 29 29 28 27 24 22 21 19 19 19 18 18 19 18 17 17 16 15 15 15 15 15 15 15 14 14 14 14 13 14 14 13 13 13 13 13 13 13 13 12 12 12 12 11 11 10 10 10 9 9 9 9 8 9 9 8 9
6 4 2 2 1 2 1 1 2 0 1 2 4 8 11 12 11 10 11 11 11 11 10 8 9 14 12 8 6 5 10 22 34 35 36 37 34 33 31 29 27 29 29 27 25 22 21 20 19 19 18 19 19 17 16 16 16 15 15 15 15 15 15 15 15 15 15 14 13 14 14 14 13 13 13 13 13 13 12 12 12 12 11 11 11 11 11 10 10 9 9 8 8 8 8 8 9
2 2 2 2 2 2 2 3 3 1 2 4 6 8 10 12 10 10 12 11 10 10 10 8 10 14 10 7 6 9 14 23 33 33 36 37 34 33 32 29 27 28 28 27 25 22 22 20 19 18 18 19 19 17 15 16 15 15 15 15 15 15 15 15 15 15 14 14 13 14 14 14 14 13 13 13 13 12 12 12 12 11 11 11 11 10 11 10 10 9 9 8 8 8 9 8 9
3 1 1 1 2 2 3 3 2 1 3 4 6 8 11 12 9 10 12 10 11 9 8 10 13 11 7 8 9 13 17 24 31 31 34 36 34 33 32 29 27 27 27 27 25 22 22 21 19 18 18 19 18 17 15 15 15 15 15 14 15 15 15 15 15 15 14 14 14 14 14 14 13 13 13 12 12 12 12 11 11 10 10 10 10 10 10 10 10 9 9 8 8 9 9 9 9
3 1 1 1 2 3 4 2 1 2 3 5 6 9 12 9 7 11 11 11 9 7 8 12 15 10 8 10 10 16 20 25 31 29 32 33 33 33 31 29 28 27 26 27 24 21 22 20 19 18 19 19 18 17 16 15 15 14 14 15 15 15 15 14 14 14 14 14 14 14 14 13 13 12 12 11 11 11 11 11 10 9 10 10 10 10 10 10 10 9 8 8 9 9 10 9 9
3 1 1 1 3 3 3 2 1 2 4 6 8 11 11 5 7 11 10 10 6 6 11 12 14 7 7 12 12 20 25 28 30 28 29 32 34 33 31 29 28 27 26 26 22 20 21 21 20 19 19 19 17 17 16 16 15 14 15 15 15 15 14 14 14 14 14 14 14 14 13 12 12 11 10 10 10 10 10 10 9 9 9 9 9 9 10 10 9 9 8 8 9 10 10 10 10
2 1 1 2 3 2 2 2 1 2 4 7 10 13 10 6 8 9 9 10 8 10 9 9 13 4 6 14 15 24 29 30 30 28 29 31 34 33 32 30 27 27 26 24 21 20 20 21 21 19 20 20 18 17 17 16 15 15 15 15 15 15 14 13 14 14 14 13 14 13 12 12 11 10 10 8 8 8 9 9 8 8 8 8 8 8 8 9 8 8 8 8 8 9 9 9 9
2 1 2 2 3 2 1 3 1 1 4 8 12 14 11 7 7 7 9 9 12 14 6 7 11 3 7 14 18 28 31 31 30 29 29 30 32 33 32 29 27 27 25 23 21 20 20 21 21 20 20 20 18 18 18 17 16 16 15 15 14 14 14 14 14 14 13 13 13 13 12 11 10 10 9 7 7 8 8 7 7 6 7 7 7 7 8 8 8 8 8 7 7 8 8 8 8
4 2 3 3 3 2 1 1 1 2 3 9 13 15 12 10 9 10 10 9 13 13 6 9 8 3 9 14 22 30 30 31 30 30 30 30 32 32 31 29 27 27 26 23 21 21 20 21 21 20 20 19 19 18 18 17 16 16 15 15 14 14 14 13 13 13 13 12 12 12 11 10 10 10 8 7 8 8 7 6 6 6 6 6 6 7 7 7 7 7 7 6 6 7 7 7 7
7 4 4 4 3 1 1 2 3 4 1 8 12 13 11 11 13 12 10 10 14 11 8 11 11 10 12 16 27 31 30 31 31 31 31 30 32 34 33 31 28 28 28 26 23 22 21 23 22 21 21 19 19 18 18 17 16 16 15 14 14 13 13 13 13 13 13 12 11 11 10 10 10 9 8 8 8 8 7 6 5 5 6 6 6 6 6 6 6 6 6 6 6 6 6 6 6
8 6 5 5 4 3 3 5 6 6 2 9 12 11 9 11 14 12 9 12 14 11 11 13 14 17 19 22 30 31 30 31 30 31 32 30 31 35 36 35 31 30 31 29 26 23 22 25 24 23 22 19 19 19 18 16 15 15 14 14 13 13 13 13 13 13 13 12 11 11 10 10 9 9 8 8 8 8 7 6 5 5 5 5 6 6 6 5 5 6 6 6 6 6 6 5 5
8 8 5 2 1 3 2 3 3 3 3 8 12 11 9 11 13 12 12 11 9 12 17 18 20 24 25 28 31 32 32 31 31 31 32 31 32 34 35 36 33 31 30 27 27 26 25 26 25 24 23 21 20 19 18 16 15 15 14 13 13 13 13 14 13 13 13 13 12 11 11 10 9 9 8 8 8 8 7 6 6 5 5 5 5 5 5 5 4 4 4 5 5 6 6 5 4
6 9 9 5 2 2 1 2 5 5 1 6 11 11 10 11 11 13 16 11 6 12 18 20 23 26 27 32 32 32 33 32 32 32 34 34 34 35 36 37 34 31 29 28 29 28 27 28 26 25 24 23 21 20 18 16 16 15 14 13 13 14 14 14 14 14 14 13 13 11 10 10 9 9 8 8 8 8 8 7 7 6 5 5 4 4 4 4 4 3 3 4 4 5 5 5 4
6 8 11 12 9 7 6 3 5 8 1 6 9 10 10 12 11 14 19 12 4 9 17 21 23 24 27 34 34 33 35 34 34 34 36 38 38 38 38 40 36 32 31 31 31 29 29 29 26 25 24 23 22 20 19 17 17 16 15 14 14 14 14 15 14 14 14 13 12 11 10 9 9 9 8 8 8 8 8 7 6 5 4 4 4 3 3 3 4 3 3 3 4 5 4 4 3
9 7 9 11 10 12 12 10 10 8 5 6 8 9 12 15 10 13 19 12 4 7 16 22 22 24 28 35 35 34 35 34 33 33 34 38 40 39 39 41 38 34 33 33 32 31 31 30 28 26 24 24 23 20 19 18 17 16 15 15 14 14 14 14 14 13 13 13 12 11 10 9 9 9 8 8 7 8 7 6 5 5 4 4 3 2 2 3 3 3 2 3 3 3 3 3 1
13 10 7 7 8 10 11 10 10 8 8 6 9 11 14 17 9 11 17 11 8 9 15 22 24 26 31 35 36 34 33 32 32 31 32 34 35 37 36 37 36 34 35 35 34 33 32 32 29 27 26 24 23 21 20 18 17 16 15 15 14 14 14 14 13 12 12 12 11 10 10 10 9 9 8 7 7 7 6 6 5 5 5 4 3 3 2 2 3 2 2 2 2 2 2 2 1
13 14 8 6 7 8 9 10 10 9 6 5 10 11 13 15 7 8 15 12 12 13 18 24 27 29 32 34 36 36 34 33 33 32 33 32 33 36 36 35 35 36 37 36 35 35 33 33 31 29 27 25 23 22 20 18 17 16 15 14 14 13 13 13 12 12 11 11 10 9 10 10 10 9 8 7 7 6 6 5 5 5 4 4 3 3 2 2 2 2 3 3 4 3 2 1 2
6 13 13 13 13 14 14 14 14 12 7 8 10 9 11 15 10 7 12 17 17 18 23 27 29 31 33 34 35 36 36 36 35 33 33 32 33 39 41 39 38 38 38 37 36 36 35 34 32 30 28 26 24 23 21 19 17 16 14 14 13 13 12 12 12 11 11 10 10 9 10 10 10 9 8 8 7 6 5 5 4 4 4 3 3 3 3 3 2 3 4 4 4 4 3 2 1
4 6 9 12 14 15 15 14 14 10 6 10 12 9 8 12 12 10 13 21 21 22 26 29 30 32 33 35 36 35 35 35 34 33 34 35 36 41 43 42 39 37 38 38 37 36 36 35 33 31 30 28 26 24 22 20 18 16 15 13 13 12 11 11 11 11 11 10 10 9 9 10 10 9 8 8 7 6 5 5 5 4 3 3 3 3 3 2 2 3 3 4 4 3 3 2 1
9 7 7 7 8 12 13 13 11 7 6 8 9 7 6 11 14 12 16 22 22 23 26 27 29 29 32 34 35 36 36 36 34 34 37 38 39 42 44 43 41 39 39 39 37 37 36 35 34 33 31 29 27 25 23 20 19 17 15 14 13 12 11 10 10 10 10 10 10 10 10 10 10 9 8 8 7 6 5 5 4 3 2 2 3 3 3 2 2 4 4 4 5 3 2 1 3
10 8 7 6 7 8 8 9 10 9 8 8 8 4 5 11 15 13 17 23 23 22 24 25 26 26 29 32 34 36 37 38 40 39 39 40 41 43 44 44 42 41 40 39 38 37 36 36 35 34 32 30 28 26 24 22 20 18 16 15 14 13 12 11 10 9 10 10 10 10 10 10 9 8 8 8 7 5 5 4 3 2 2 2 3 4 4 4 3 5 6 6 5 3 1 1 5
7 5 5 5 5 5 2 3 8 9 7 13 11 5 6 8 13 16 20 26 26 23 23 24 25 25 27 31 33 34 37 41 45 43 42 43 43 43 44 44 43 42 40 39 39 37 36 36 35 35 33 31 30 27 25 23 21 19 17 16 15 14 13 11 10 10 10 10 10 11 11 10 9 8 8 8 7 5 4 3 3 2 1 1 3 4 4 5 4 5 6 6 4 1 2 4 5
4 5 5 5 5 7 4 3 8 8 4 14 13 5 6 7 9 19 23 27 28 23 23 24 25 26 27 29 31 33 35 39 42 43 44 44 44 45 44 43 43 42 41 39 39 38 37 36 36 35 34 32 30 28 26 24 22 20 18 16 15 15 14 13 11 11 11 10 10 11 11 11 10 9 8 7 6 5 4 3 3 2 1 1 2 3 3 5 5 5 5 5 3 2 5 6 5
4 6 5 6 7 9 6 3 9 10 4 12 14 6 4 3 7 19 23 27 28 23 23 25 25 27 28 29 29 30 31 32 35 39 43 45 45 46 45 44 43 42 41 40 39 39 38 37 36 35 34 33 31 29 27 25 24 22 20 18 17 16 15 14 13 12 12 12 11 11 12 11 10 10 8 7 6 5 4 3 3 2 1 0 1 2 3 5 6 6 6 5 4 2 4 5 4
5 6 5 5 8 9 6 2 6 11 7 10 13 10 8 2 6 17 23 27 26 23 23 25 25 26 27 27 28 30 31 32 35 39 43 46 46 46 46 45 44 43 41 41 39 39 38 38 37 35 34 33 32 30 28 26 25 23 21 20 19 17 16 16 15 14 14 13 12 12 12 12 11 10 9 7 6 5 4 4 3 2 1 1 2 2 2 3 4 5 6 5 5 1 3 4 3
7 7 6 5 7 9 8 4 2 7 10 10 12 12 12 6 5 13 20 25 25 24 24 25 26 26 26 27 28 30 32 35 39 43 44 46 46 46 46 45 44 44 42 41 40 39 39 38 38 36 35 34 33 31 30 28 26 24 23 22 21 20 18 18 17 16 16 15 14 12 12 12 12 11 10 9 7 6 5 4 3 2 1 2 2 2 3 3 3 4 4 4 3 1 2 4 2
6 8 6 7 9 8 8 6 1 3 7 10 11 12 12 10 7 11 17 22 24 22 21 22 23 24 25 26 27 29 32 37 41 42 43 45 46 45 46 45 44 44 43 42 41 40 40 39 39 38 37 36 34 33 32 30 29 27 25 24 23 22 20 19 19 18 17 17 15 14 13 13 12 12 11 10 8 7 6 5 3 2 2 2 3 3 3 3 4 3 3 3 2 0 1 2 2
2 5 7 8 9 9 6 5 3 3 5 8 10 11 12 12 10 12 16 20 20 19 19 20 22 23 25 27 28 30 32 34 36 36 39 43 44 45 44 44 44 43 43 43 43 42 40 40 40 40 39 38 37 36 34 33 31 30 28 27 25 23 22 21 21 20 19 18 17 15 15 14 13 12 12 10 9 8 7 7 5 4 4 3 3 4 3 4 4 4 3 3 2 0 1 2 2
5 4 6 7 9 9 6 3 3 3 5 7 8 10 13 13 11 11 14 16 17 20 21 21 23 24 25 28 29 29 27 27 29 32 35 38 40 42 43 44 44 43 43 44 44 42 41 41 40 40 39 39 39 38 36 34 33 31 29 28 26 24 23 21 21 21 21 19 17 17 16 15 14 13 12 10 9 8 8 7 6 5 5 5 4 4 4 4 5 5 5 4 4 3 2 3 3
11 5 5 5 5 5 7 6 4 4 5 5 6 9 12 11 10 11 14 16 19 24 26 26 28 28 27 29 29 28 26 26 29 32 36 38 37 39 42 44 44 44 42 42 43 42 42 42 41 40 40 40 40 39 38 36 34 32 29 28 26 25 24 22 22 22 21 20 19 18 17 16 15 14 12 10 9 9 8 7 6 6 6 6 5 5 4 5 5 4 5 5 5 4 3 4 3
12 9 7 6 3 3 6 4 2 5 7 6 5 7 9 7 6 9 16 21 20 22 25 24 26 29 30 30 30 29 30 31 32 34 36 37 37 37 39 42 45 45 41 40 43 43 43 43 41 41 39 39 40 39 38 36 34 32 30 28 27 25 25 23 23 22 22 22 20 19 19 18 17 15 13 11 10 9 8 7 6 6 7 7 7 6 5 5 5 4 4 4 5 4 3 4 4
12 14 11 8 5 5 4 2 4 4 7 7 6 7 9 7 7 8 12 18 17 17 19 19 20 22 22 23 26 28 31 33 35 36 37 38 39 38 37 37 42 45 43 41 44 44 43 42 41 39 38 38 38 38 38 37 36 34 32 30 29 28 26 25 25 25 24 24 22 21 20 19 18 17 15 13 11 10 8 7 7 7 8 8 8 7 6 5 5 4 4 4 5 4 3 4 5
11 15 16 12 8 7 7 7 6 4 5 5 5 9 8 6 10 10 8 11 14 14 16 20 21 20 20 21 25 27 29 31 34 37 39 39 39 38 37 37 39 43 44 42 43 43 42 41 39 38 38 37 37 37 37 37 38 36 35 33 32 31 29 28 28 26 25 24 23 22 20 19 19 18 17 14 12 11 10 8 7 8 8 8 8 7 6 5 5 4 4 5 6 5 4 4 5
8 12 16 16 12 9 10 9 5 4 4 1 2 8 7 5 9 10 8 11 15 15 15 20 22 21 24 26 26 28 29 30 31 34 35 37 38 38 40 41 41 45 45 43 43 42 41 40 39 37 37 37 36 36 36 37 38 38 37 35 33 32 31 30 28 27 26 25 24 22 21 21 20 19 18 16 14 13 11 9 8 8 8 8 8 8 6 5 5 5 5 6 6 6 5 5 6
8 7 12 15 14 13 12 10 7 6 5 6 6 6 6 7 6 5 8 12 13 15 16 18 20 23 27 28 27 29 31 31 32 33 34 36 40 43 44 46 47 47 46 45 44 43 41 39 38 36 36 36 35 35 35 36 38 38 38 37 35 33 31 30 28 27 26 25 24 23 22 22 21 20 19 17 15 14 12 11 10 9 9 9 9 8 7 6 6 6 6 6 6 6 6 6 6
7 6 9 11 13 13 12 9 8 6 5 8 8 5 5 8 5 2 6 11 11 14 17 16 18 24 27 28 29 30 31 32 33 35 36 38 42 46 47 48 47 46 46 46 45 43 41 39 37 36 36 35 35 34 34 35 36 36 37 37 36 34 31 31 30 28 27 26 25 24 24 23 22 21 20 18 16 15 14 13 11 10 9 9 9 8 7 7 7 7 6 6 7 6 6 7 7
4 8 9 10 11 11 10 9 8 7 8 10 10 7 6 9 7 5 6 8 10 12 14 14 18 24 26 27 29 28 28 30 31 33 36 39 42 45 45 45 45 46 46 46 44 42 41 39 38 38 37 36 35 34 34 34 34 35 36 36 35 34 32 32 31 30 29 27 26 26 24 23 22 21 20 19 17 16 15 14 13 11 10 9 9 8 8 8 7 7 7 7 7 7 7 7 7
6 8 8 8 8 8 8 7 5 7 10 12 13 11 8 9 9 8 7 6 8 9 10 11 16 22 25 25 26 26 27 30 31 31 33 36 39 40 40 41 44 46 46 46 45 43 42 40 39 39 38 37 36 35 34 33 33 34 35 35 34 33 32 32 32 32 30 29 28 27 26 24 23 22 20 19 18 17 16 15 14 13 11 11 10 8 8 8 8 8 8 8 8 8 8 8 7
9 8 8 5 4 5 6 5 5 9 11 10 13 13 11 12 10 6 7 7 8 9 10 11 15 21 25 26 27 28 30 32 32 31 31 33 37 38 38 40 43 45 47 47 46 44 43 42 41 40 39 38 37 36 35 34 33 33 33 33 33 33 32 32 32 32 31 30 29 28 27 26 24 23 21 19 19 18 17 16 15 14 13 13 11 9 9 8 8 9 9 9 9 9 9 8 8
11 10 9 8 5 5 7 7 7 10 9 5 9 11 12 12 10 7 8 8 10 10 10 12 15 20 24 26 28 29 29 30 32 33 33 34 40 42 41 42 45 47 48 48 46 45 45 44 42 41 40 39 38 37 36 35 35 33 33 32 32 32 32 32 32 32 31 30 30 29 28 27 26 24 22 21 19 19 18 17 16 16 15 13 12 11 10 9 9 10 10 10 10 10 10 9 8
12 11 10 10 7 7 9 8 7 9 7 3 6 7 9 9 7 11 13 14 16 13 12 14 17 20 24 26 28 28 28 29 31 35 36 37 42 44 44 46 48 48 48 47 46 46 46 45 44 42 41 40 38 37 36 36 35 34 33 32 32 32 32 32 32 32 32 31 30 29 28 27 26 25 23 21 19 18 18 17 17 16 16 15 14 13 12 11 11 11 11 11 11 11 11 10 9
12 12 10 10 9 8 8 7 7 7 5 5 9 6 7 5 2 5 12 17 20 18 17 19 19 21 23 23 23 25 27 29 31 36 40 43 44 45 46 47 48 48 47 47 47 47 47 46 44 43 42 41 40 39 37 36 35 34 33 33 33 33 33 33 32 32 32 31 30 29 28 27 26 24 23 21 19 18 18 17 17 17 17 16 15 14 13 12 12 12 12 12 12 12 12 12 11
10 11 11 11 9 8 5 4 5 4 6 6 9 6 4 1 4 4 6 11 15 18 19 21 22 20 18 17 20 25 28 30 32 36 42 45 46 45 47 48 49 49 48 48 49 48 47 46 45 43 42 41 40 39 39 37 35 34 33 33 33 33 33 33 33 32 32 31 30 29 28 27 25 24 22 21 20 19 19 18 17 17 17 17 16 16 15 14 13 13 13 13 13 13 13 13 12
7 10 12 9 8 9 7 5 2 2 8 6 6 8 7 3 8 9 8 6 9 13 15 18 22 19 17 18 22 26 28 31 34 38 44 47 48 48 48 49 49 50 50 50 50 48 46 45 45 44 43 42 41 40 39 37 36 35 34 33 33 33 33 34 33 33 32 31 31 30 28 27 26 24 23 21 21 20 19 19 18 18 18 18 18 17 17 16 15 15 15 14 14 14 14 14 13
5 9 10 7 7 10 8 6 4 6 10 6 5 11 11 6 7 9 12 12 10 10 11 15 19 16 18 21 24 29 32 34 38 42 44 47 49 50 49 49 50 51 52 52 50 48 45 44 44 44 44 43 42 40 39 38 37 36 34 33 32 32 32 33 33 33 32 32 31 30 29 28 27 25 24 23 22 20 20 19 19 19 19 19 19 19 18 18 17 17 16 16 15 15 15 15 15
10 7 9 8 8 10 8 7 8 8 9 6 6 9 10 10 7 5 12 16 15 12 10 13 14 14 19 22 25 30 32 32 36 40 41 45 48 49 50 50 50 50 52 52 51 48 46 45 45 44 44 42 41 40 40 39 37 36 35 34 33 32 31 31 32 32 32 32 31 30 29 28 27 26 25 24 23 22 21 20 19 19 20 20 20 20 19 19 19 18 18 17 17 16 17 16 16
11 6 9 9 6 7 9 8 6 7 8 7 6 7 8 9 8 7 11 13 15 15 11 10 12 15 21 23 23 28 30 33 37 39 40 46 49 50 52 52 51 51 52 52 51 49 48 47 46 46 45 43 42 41 40 39 38 36 35 34 33 32 31 30 30 30 30 30 30 30 29 28 27 27 26 25 25 24 23 21 20 19 19 20 21 21 21 20 20 20 19 19 18 18 18 17 17
8 7 9 11 6 4 6 9 8 7 7 6 6 7 7 4 5 10 13 11 12 14 11 9 11 16 22 23 24 28 33 38 41 40 41 45 49 50 51 52 50 47 49 51 51 50 50 49 48 47 46 45 44 42 41 39 38 37 36 35 34 33 32 31 30 29 29 29 29 29 28 27 27 27 26 26 26 25 24 23 21 21 20 20 21 22 23 22 22 22 21 20 19 19 19 18 18
3 4 6 7 8 7 8 10 10 8 8 6 6 7 7 3 3 8 14 12 11 13 12 11 12 17 22 25 26 31 36 40 42 43 43 44 49 49 47 48 47 44 46 50 51 51 52 51 50 49 48 47 45 43 42 40 39 38 36 35 34 33 32 32 31 30 28 28 29 28 28 27 27 26 26 26 26 26 25 24 23 22 21 20 21 22 24 24 24 23 22 22 21 20 20 19 19
Wind_Direction
164 155 150 153 151 146 153 167 199 190 238 279 274 281 184 177 156 141 144 137 133 141 134 135 141 139 136 143 137 92 68 131 88 9 118 138 154 154 151 151 152 151 145 140 136 134 138 139 139 140 137 135 135 132 129 125 125 124 122 121 122 122 123 122 120 119 117 116 116 116 115 115 115 114 113 110 112 114 114 113 109 107 104 100 91 85 83 83 87 91 94 93 95 101 106 108 105
160 152 151 155 154 153 164 186 235 140 235 296 263 262 114 150 168 149 148 146 133 140 137 135 137 136 133 126 125 104 78 67 61 95 120 142 152 154 153 153 153 150 145 140 135 137 140 140 139 138 135 134 134 132 129 127 127 125 124 124 126 126 125 123 120 118 116 116 116 117 116 115 114 112 113 113 117 117 114 112 110 108 107 104 96 92 88 85 87 89 93 94 92 94 100 101 102
158 153 152 152 161 178 167 183 241 19 258 294 95 158 161 154 146 131 139 137 132 138 135 132 124 114 129 130 123 101 92 76 109 120 130 147 153 154 154 154 155 152 147 142 138 140 142 142 141 139 138 137 135 131 129 128 128 125 125 125 125 124 121 119 116 116 115 116 116 115 115 115 115 116 117 118 119 115 112 111 110 110 110 107 101 97 91 87 87 88 94 97 93 91 94 95 98
160 156 155 150 169 209 197 193 259 340 259 262 53 137 185 153 133 127 132 133 137 142 139 135 116 105 134 132 108 83 109 119 134 136 141 153 156 153 153 155 156 153 149 145 143 143 144 145 143 141 140 139 136 132 131 130 128 125 123 124 122 120 117 116 116 116 117 118 119 117 118 119 119 121 119 117 114 110 110 110 109 110 109 106 103 100 94 89 89 93 98 101 100 93 90 93 95
157 160 158 151 171 222 239 227 233 213 253 10 21 107 175 148 137 131 131 134 142 149 150 143 113 111 112 102 80 95 119 128 145 146 145 155 157 153 153 156 157 154 149 148 147 145 146 146 144 144 143 140 137 133 132 130 127 126 125 124 122 120 118 118 118 119 120 121 121 120 120 121 120 119 116 113 108 103 103 104 105 107 105 104 105 102 97 93 93 100 104 104 103 95 92 93 94
158 164 166 181 250 271 265 241 249 242 293 258 296 75 154 147 138 134 133 133 141 153 157 148 121 122 102 75 53 104 120 137 152 153 150 155 157 155 154 157 158 153 151 151 150 148 148 148 146 146 144 141 138 136 133 130 129 127 125 124 122 122 120 120 120 120 121 121 120 119 119 117 115 113 111 108 104 101 100 100 102 104 106 107 108 106 103 96 94 102 105 103 99 94 93 92 93
159 162 173 215 257 252 268 284 269 256 23 214 257 117 155 146 140 138 140 139 141 152 155 143 130 118 100 93 84 107 117 147 156 154 154 156 157 156 156 159 158 154 154 155 153 150 149 148 147 146 144 141 139 137 134 132 129 128 126 124 124 123 122 121 120 121 120 119 117 117 116 112 110 108 105 103 102 101 99 99 100 101 104 106 107 107 105 97 94 98 101 98 93 90 89 89 90
163 161 180 215 257 204 277 305 287 260 91 186 258 146 150 147 147 145 148 149 150 155 152 147 143 114 99 129 107 123 119 150 161 156 155 157 157 157 157 161 160 156 155 157 156 149 148 149 147 146 144 142 141 139 136 134 129 128 126 125 126 124 123 122 121 120 118 116 114 112 111 108 106 104 102 100 99 100 100 99 97 96 97 96 100 101 100 99 96 93 94 94 90 86 85 83 84
176 184 186 215 321 296 294 300 284 243 241 221 111 137 144 150 152 151 152 151 151 150 148 154 167 136 120 120 107 132 130 157 164 156 156 159 158 158 157 161 162 159 157 159 157 149 148 151 149 147 147 144 143 140 137 134 130 129 127 126 126 124 122 121 120 119 117 114 112 109 107 106 104 102 100 100 99 99 100 97 94 92 91 90 91 93 93 94 94 93 92 90 85 83 83 82 84
185 214 234 261 336 317 303 287 287 219 218 139 117 142 147 155 156 157 154 149 150 140 140 146 136 130 130 118 109 138 146 159 162 156 158 160 160 160 159 162 163 160 160 160 159 151 149 153 152 149 149 147 144 141 139 135 131 131 129 128 126 125 123 121 121 118 116 113 111 110 107 106 104 103 101 101 101 101 100 97 95 92 91 89 87 88 88 88 89 92 92 90 86 84 82 79 82
186 208 251 288 258 304 311 341 327 3 133 127 127 149 156 158 155 157 149 141 146 135 140 145 122 128 129 118 114 139 148 160 163 158 160 162 161 162 161 162 163 163 162 162 160 154 150 154 154 152 153 150 146 143 141 137 133 133 131 130 128 127 125 123 123 120 118 115 115 114 110 108 105 105 104 103 102 101 101 98 96 92 89 88 86 85 85 86 87 89 92 92 88 83 80 80 79
214 190 210 289 276 283 302 318 323 47 133 153 149 159 166 162 157 157 150 140 145 139 150 165 145 136 127 123 129 143 149 162 165 159 161 163 161 162 163 162 163 165 164 163 162 156 153 155 155 155 157 151 147 146 143 140 136 136 134 132 130 128 127 125 124 122 120 119 120 117 113 111 108 108 106 104 102 101 100 98 98 95 92 88 86 84 83 84 84 86 89 93 90 86 87 87 86
240 227 213 304 275 276 299 305 320 133 145 159 157 160 168 167 165 159 150 142 151 153 159 168 153 136 119 127 136 149 153 163 165 160 161 163 162 163 163 163 163 165 166 166 163 158 155 155 156 159 158 151 149 150 146 143 140 139 137 135 133 130 129 127 125 124 122 122 121 118 115 114 112 110 107 104 102 101 100 99 99 98 96 92 89 87 85 83 83 85 86 91 92 91 92 88 88
220 309 310 286 279 283 281 271 185 181 145 146 152 156 168 169 161 158 150 146 156 160 151 161 157 133 118 133 146 159 159 164 164 160 162 163 163 164 164 164 164 166 168 168 165 160 158 156 158 161 158 152 151 153 151 148 145 142 141 140 137 133 131 129 128 126 124 123 120 117 115 114 113 111 109 107 104 103 101 98 96 94 94 92 91 89 87 86 85 85 82 82 83 84 86 84 84
207 292 295 267 289 280 242 232 197 187 141 152 160 156 161 152 149 158 161 152 141 152 145 156 168 148 151 166 169 167 163 164 164 159 161 164 164 165 166 165 165 168 170 170 167 163 161 159 160 161 158 154 153 155 154 153 150 147 146 144 141 137 135 133 132 129 127 125 121 117 114 112 110 109 107 106 106 105 102 98 94 91 92 93 91 89 86 86 85 86 84 78 78 79 81 83 82
202 258 285 267 275 261 207 201 191 175 143 156 160 158 153 132 152 161 173 158 126 151 152 159 178 183 177 179 172 166 163 162 162 159 161 164 165 167 168 167 167 170 172 170 169 167 165 161 160 162 160 155 155 156 155 155 154 151 150 147 144 141 139 138 136 133 130 128 125 121 117 113 109 109 106 103 105 104 103 98 95 94 94 94 91 91 88 87 85 85 84 80 79 81 81 84 86
193 246 250 244 247 249 217 195 179 70 134 154 161 167 158 136 152 150 165 163 137 151 146 149 178 201 171 177 170 162 160 160 161 161 161 164 166 168 170 170 169 171 172 171 172 169 169 165 161 163 161 157 156 156 154 155 155 154 152 149 146 143 142 141 139 135 133 131 128 124 121 119 116 115 111 112 111 103 101 98 99 99 94 94 92 91 89 85 84 83 83 84 83 83 84 83 85
182 210 230 237 237 228 239 174 25 2 152 161 171 177 167 151 153 142 147 150 141 147 131 133 149 157 171 175 166 159 158 161 162 163 164 166 167 169 171 172 173 174 171 173 175 172 172 168 164 164 161 157 156 154 153 154 156 154 153 152 149 147 146 145 144 140 136 133 131 128 127 129 127 124 122 124 118 109 107 107 107 103 97 95 91 89 85 81 79 79 78 76 77 78 80 76 75
192 208 233 231 215 194 294 320 343 332 162 163 178 183 177 160 153 154 155 152 150 146 132 133 121 126 151 159 159 158 159 163 165 167 167 168 171 171 173 173 175 175 172 174 177 174 175 172 168 166 161 157 156 153 151 152 156 155 154 155 153 151 151 150 148 144 140 137 136 135 134 136 134 132 131 129 122 117 115 111 105 98 98 95 88 84 83 81 74 73 73 68 68 72 75 72 70
202 214 237 236 237 252 271 288 293 296 238 177 181 183 183 165 155 164 165 159 167 167 154 151 139 139 148 152 158 159 162 167 168 169 170 170 173 174 175 175 176 177 176 176 175 174 177 175 172 167 163 160 158 155 152 152 157 158 156 158 157 155 155 153 150 147 143 141 141 138 136 136 134 133 129 125 121 119 115 106 98 89 92 92 88 85 84 84 73 65 63 63 65 71 79 80 79
193 208 233 234 238 241 243 325 325 305 246 191 176 177 182 168 165 171 162 159 186 196 180 172 162 153 153 157 160 162 165 170 172 173 173 173 175 176 177 177 178 178 178 178 177 177 178 178 175 170 166 163 161 158 155 155 159 159 158 159 158 156 155 155 152 149 147 144 142 139 138 135 133 132 125 123 119 115 113 108 106 99 94 93 89 87 87 86 75 59 48 48 53 65 77 86 93
199 221 241 247 257 271 290 41 45 26 302 180 170 180 175 166 178 180 173 177 203 203 189 180 174 164 160 162 163 164 168 172 175 176 176 176 177 178 179 179 179 179 180 180 179 180 179 179 179 174 169 166 164 162 159 158 158 156 155 157 157 156 155 155 152 152 151 147 144 141 140 136 133 131 124 122 118 114 114 111 111 108 102 95 88 81 76 72 65 58 49 43 42 52 63 73 85
225 234 242 245 250 264 273 280 331 344 313 180 181 184 168 169 192 192 191 201 198 190 186 182 182 175 167 164 165 168 172 175 177 179 180 180 180 180 181 181 182 181 182 182 181 181 180 181 182 178 172 169 167 165 162 159 158 155 152 152 154 156 155 155 154 154 154 150 147 144 139 137 135 132 129 126 122 119 114 111 110 107 104 94 86 72 57 48 39 34 38 40 37 37 39 51 66
233 249 246 245 247 252 265 279 300 309 271 231 194 180 180 189 197 193 203 211 176 181 189 186 181 175 170 168 169 172 175 177 179 181 183 184 184 183 184 184 184 184 184 184 184 183 183 183 184 182 177 173 170 167 166 163 161 156 152 150 151 155 156 157 157 158 157 154 151 147 140 137 137 136 137 134 130 125 114 110 107 103 105 96 85 74 61 47 34 16 14 20 25 24 18 29 32
227 244 250 247 250 255 267 279 287 290 279 245 192 191 199 199 194 194 206 201 169 182 185 181 176 172 172 172 172 174 176 179 179 181 185 186 186 186 186 186 186 187 187 186 186 185 185 185 185 185 182 178 174 171 169 168 165 161 155 152 152 155 158 161 162 162 161 158 156 152 146 140 139 142 144 143 139 132 121 116 112 109 109 102 95 85 81 60 41 5 359 357 356 7 4 8 337
222 234 248 254 259 269 278 282 281 288 282 209 193 209 207 197 198 213 205 183 169 177 173 174 175 173 174 175 176 177 178 180 181 183 185 187 188 189 189 189 189 190 189 188 188 188 187 187 188 188 185 182 181 177 175 173 171 167 161 156 155 156 160 164 166 167 164 161 161 160 156 148 145 146 147 149 147 137 128 123 116 110 104 100 93 76 71 56 27 346 346 333 328 339 342 328 300
222 234 248 258 267 274 275 277 275 281 274 216 212 229 210 192 201 220 188 175 173 167 167 173 175 175 177 178 179 180 181 183 184 183 184 187 190 193 192 192 193 192 192 191 191 190 190 190 190 190 189 187 186 185 181 179 178 173 168 164 161 160 163 167 169 171 169 166 167 168 167 160 154 152 149 149 148 140 133 129 119 109 100 91 81 66 63 48 9 346 346 335 331 333 324 304 290
261 255 258 258 265 270 265 265 265 269 261 220 222 242 207 183 206 219 170 169 177 166 164 172 175 177 180 181 181 182 183 184 184 184 186 190 192 195 195 195 194 193 195 194 193 193 192 192 193 192 192 191 191 191 188 186 186 181 177 174 169 169 169 170 172 174 174 174 175 174 175 172 167 162 156 152 149 147 141 134 124 113 97 80 66 51 50 38 350 340 347 348 354 351 327 321 85
257 275 282 277 276 275 258 250 249 241 242 214 212 243 206 189 215 210 168 169 174 168 166 171 175 177 180 182 182 185 186 186 187 188 191 193 194 197 197 198 197 196 197 197 196 195 195 195 195 195 195 194 194 195 194 192 192 189 186 183 179 179 179 179 177 177 180 182 181 180 181 180 177 174 169 163 157 156 151 138 125 115 92 64 44 36 32 8 336 332 340 355 5 5 331 348 98
242 258 268 285 288 279 248 234 227 219 233 191 175 246 226 210 215 191 170 172 168 167 171 172 174 176 179 181 183 187 188 190 192 194 195 196 197 199 200 200 200 199 199 199 200 199 198 197 198 199 198 197 197 199 200 199 197 195 194 192 189 188 189 188 185 184 186 189 189 186 185 185 183 182 180 176 169 166 159 145 136 132 102 63 40 36 16 346 349 341 339 356 1 358 339 106 113
218 228 241 258 264 261 203 188 202 204 212 178 176 252 252 227 207 181 175 176 171 173 175 175 176 176 179 182 184 187 190 195 198 198 199 199 200 201 202 202 202 203 202 202 202 202 201 200 200 201 201 200 200 201 203 203 202 201 200 199 197 195 195 196 194 193 194 196 197 195 193 190 188 185 183 182 178 174 166 156 160 167 150 83 42 38 11 340 351 354 347 357 359 358 160 141 126
197 202 219 219 232 257 241 182 194 202 186 177 187 245 254 250 197 176 177 179 177 178 178 178 179 179 181 182 185 188 191 197 200 201 202 203 203 203 204 205 205 205 205 205 205 205 205 204 203 203 203 203 203 204 205 206 205 206 207 207 205 204 202 200 200 201 202 204 205 203 201 198 194 190 188 186 183 183 173 164 177 188 177 112 38 32 12 339 342 356 351 359 23 140 161 149 138
204 209 219 194 205 244 247 201 206 212 181 179 197 237 261 262 176 172 176 180 181 179 179 181 182 181 182 183 185 187 190 195 198 201 204 205 206 207 207 208 208 208 207 208 207 207 207 207 206 206 206 207 207 208 208 209 208 209 212 214 213 210 209 207 205 207 208 211 213 210 208 204 200 196 194 192 189 192 182 172 189 204 207 135 4 6 6 346 342 343 342 358 23 94 163 159 157
200 206 219 197 206 232 238 232 209 208 205 195 206 232 252 253 150 171 178 181 183 182 182 182 183 183 183 184 185 187 189 193 198 201 204 206 208 209 210 211 212 211 211 210 210 210 210 209 209 208 209 210 211 212 212 213 212 213 216 217 217 215 214 213 210 211 212 215 218 217 215 211 206 203 200 198 194 194 192 184 194 218 259 318 322 330 348 349 340 328 332 353 9 40 177 181 181
204 196 202 205 218 234 232 233 175 189 210 211 208 227 242 237 159 176 183 183 186 188 185 184 184 184 184 185 187 189 191 195 201 203 204 207 208 210 211 212 214 214 214 213 213 213 213 212 212 211 212 212 213 215 215 216 216 216 218 218 219 217 217 216 214 214 214 216 220 220 222 219 214 212 208 205 200 199 204 200 201 236 290 315 308 321 338 333 321 316 325 331 344 40 185 203 219
217 205 207 211 216 231 228 227 233 181 209 216 216 228 237 231 201 188 188 188 192 193 186 184 185 184 186 188 190 192 194 198 202 203 204 207 209 211 212 213 215 216 216 216 215 216 215 214 215 215 215 215 216 217 217 218 218 218 219 219 219 219 218 218 217 217 216 218 221 222 225 224 222 219 215 212 209 208 215 218 216 241 277 294 308 326 331 311 307 315 320 304 293 113 179 215 248
267 216 218 223 224 232 224 219 245 227 225 226 224 236 243 237 220 199 192 192 197 196 187 185 186 186 188 191 194 196 197 200 200 201 203 206 209 211 212 213 215 217 218 218 218 218 217 216 217 218 218 218 219 219 218 219 220 220 220 220 221 221 221 221 220 219 218 219 221 223 225 225 225 223 218 214 213 216 222 227 226 233 262 282 301 316 311 303 313 321 320 309 296 235 210 234 266
255 238 222 229 229 238 243 238 258 228 234 241 230 242 248 241 229 205 190 191 200 199 192 190 189 190 193 194 196 197 196 195 195 197 201 204 207 210 212 213 215 216 217 219 219 219 219 218 219 220 220 221 221 221 221 222 223 224 225 225 225 226 225 225 224 223 222 222 222 224 225 225 225 224 218 211 212 218 222 228 232 234 252 269 280 291 299 311 328 326 320 324 321 306 265 253 272
238 243 236 234 221 248 262 251 253 235 235 245 230 242 253 249 234 208 191 197 206 204 200 195 191 191 194 196 196 194 190 190 193 197 200 202 204 208 211 213 215 217 217 220 220 220 220 220 221 222 223 223 223 223 223 224 226 228 229 230 229 230 230 230 229 227 225 224 224 225 226 225 226 225 219 212 213 219 222 228 234 239 245 253 264 271 284 307 326 322 313 313 311 308 286 263 268
230 229 232 230 203 235 246 221 228 240 240 256 255 254 261 255 232 209 202 206 209 208 207 203 196 195 196 197 195 192 189 190 192 195 199 200 202 204 208 211 215 216 216 219 221 220 221 221 222 222 223 224 224 224 225 225 228 229 230 231 231 231 233 233 233 231 228 226 225 225 226 225 226 226 222 216 218 224 228 232 238 242 244 244 252 258 267 293 310 308 300 299 305 315 305 274 264
224 226 229 227 218 231 252 335 347 272 237 240 256 267 265 246 235 227 207 209 213 208 208 210 208 204 199 197 197 195 194 193 193 194 197 199 201 202 204 207 212 216 216 219 221 221 221 221 222 222 223 224 225 225 226 226 227 228 229 229 229 230 232 234 233 231 228 226 225 225 226 225 226 227 224 220 223 230 232 235 240 242 245 244 245 251 257 273 292 298 296 295 302 311 304 280 265
224 225 226 229 233 239 260 296 315 283 232 205 216 249 258 231 234 239 197 198 215 207 204 211 210 203 199 200 201 200 199 199 198 198 199 199 200 201 202 204 208 213 215 218 220 221 221 221 222 222 223 223 224 225 226 227 228 228 228 228 228 228 230 231 231 229 227 226 227 227 226 226 226 227 226 225 226 231 233 235 241 244 247 248 245 245 250 259 276 289 291 289 296 301 296 283 266
234 218 213 222 234 240 248 266 273 258 257 254 222 245 256 227 227 233 192 192 211 206 208 215 208 200 203 205 203 201 201 200 200 201 200 198 198 200 203 206 210 213 216 218 221 222 222 223 222 223 224 223 223 224 225 227 228 228 229 229 231 231 232 233 232 230 228 227 229 230 228 228 228 227 228 228 229 231 232 233 239 244 249 250 248 245 245 251 260 272 282 283 290 297 294 287 269
241 196 186 207 223 232 238 250 252 258 292 292 259 241 261 254 229 216 194 202 211 205 212 217 206 203 207 208 206 204 202 199 198 199 199 198 201 205 208 212 215 216 218 220 222 222 222 223 223 223 224 224 224 224 224 226 226 228 229 230 232 234 234 236 235 233 230 228 229 231 229 229 229 229 229 229 231 233 233 231 234 241 247 249 248 246 241 241 244 256 270 278 286 294 293 287 273
237 161 167 196 214 226 231 244 251 260 287 269 244 213 250 258 228 151 191 211 214 209 216 215 206 208 209 208 208 206 204 201 200 200 200 202 205 210 213 215 216 216 217 221 222 222 222 223 223 224 225 225 225 225 224 225 225 227 229 230 232 233 235 236 237 235 231 228 229 229 229 229 231 231 230 230 231 234 234 231 231 234 242 247 248 245 239 235 237 244 257 272 284 288 285 282 276
206 150 172 192 206 219 222 235 247 250 254 251 239 212 234 260 237 193 192 212 215 212 218 214 208 212 211 209 210 207 203 203 203 202 203 206 209 213 214 214 214 215 218 222 223 222 223 222 223 224 224 225 226 225 224 224 225 226 229 230 231 232 233 234 235 234 231 228 229 229 228 228 229 230 231 230 230 231 232 232 230 230 234 241 243 242 238 235 235 240 248 261 273 278 279 279 275
161 155 181 182 196 209 213 226 235 246 247 242 237 218 222 259 249 214 201 214 213 204 211 212 211 215 214 212 210 206 203 203 203 203 204 207 210 212 210 210 213 215 217 221 223 223 223 223 223 224 224 225 226 226 225 224 224 226 228 229 230 230 230 231 232 231 229 227 228 229 228 227 227 229 230 230 228 228 229 230 229 229 231 235 238 239 238 237 236 238 244 252 261 268 272 275 273
178 186 192 173 182 190 205 205 196 236 246 231 226 218 218 242 245 211 199 212 216 209 207 205 207 214 215 212 210 206 204 202 201 202 202 202 207 209 206 207 212 214 216 220 222 222 223 224 223 223 224 224 225 226 226 226 225 226 228 228 229 229 229 229 230 230 229 227 227 229 229 227 225 226 228 228 227 226 226 226 228 229 231 233 235 238 237 237 237 237 242 250 258 264 266 269 269
199 200 194 193 195 180 203 205 196 231 245 219 207 207 219 242 251 238 226 226 227 222 215 210 209 211 212 211 209 207 205 202 199 201 200 200 207 209 206 207 212 214 216 219 220 221 222 224 223 223 223 223 225 225 225 226 226 226 227 227 227 228 228 228 229 230 230 228 228 229 230 228 225 225 225 227 227 226 225 226 228 232 234 236 237 240 241 239 238 239 243 250 257 262 265 266 265
201 201 195 199 197 195 209 209 210 230 239 201 169 192 232 252 252 233 231 240 240 230 222 223 218 213 215 214 209 206 205 201 199 201 203 205 208 209 209 210 213 215 217 218 219 220 221 223 223 222 223 223 224 225 224 225 225 225 226 227 227 228 228 228 228 230 231 231 230 229 231 230 228 227 227 228 228 227 228 228 231 234 235 236 238 241 244 242 241 242 244 249 255 260 262 263 263
202 201 203 207 203 210 214 208 216 234 248 197 165 182 229 225 208 210 218 235 238 230 224 226 227 222 221 217 207 203 204 202 200 203 209 212 213 211 210 212 215 216 216 216 217 219 221 222 222 221 222 223 224 225 224 224 224 225 226 226 227 228 228 229 229 229 231 232 232 231 232 232 231 231 230 232 231 230 230 229 231 233 233 235 237 241 244 245 245 246 247 249 252 258 261 263 264
203 195 205 216 208 209 220 226 226 240 265 226 186 212 246 244 314 284 227 234 233 228 222 220 225 222 212 207 203 203 205 203 201 204 210 215 216 213 210 213 216 216 215 215 216 218 220 221 222 222 222 222 223 224 225 225 225 226 226 226 226 226 227 229 230 230 231 232 233 233 233 233 234 234 234 234 234 232 231 230 230 231 233 235 238 240 243 245 246 248 250 251 251 256 261 264 266
181 194 210 205 193 207 222 232 208 217 248 234 188 231 251 273 278 254 223 232 230 228 223 220 225 213 194 200 205 204 204 202 204 209 213 214 215 216 214 214 215 216 216 215 216 219 220 221 222 222 222 223 224 224 225 225 226 227 227 226 225 225 226 228 230 231 231 232 233 234 235 235 235 236 236 236 236 234 232 232 232 232 234 236 239 241 243 245 247 248 251 253 252 255 259 261 263
184 200 200 167 181 214 227 231 211 210 238 228 183 228 236 226 245 224 210 223 226 220 218 222 224 205 195 206 209 210 209 207 211 215 215 214 214 216 216 214 215 217 217 217 218 220 220 222 223 223 222 223 223 224 225 225 225 226 227 226 224 224 225 227 230 231 232 233 234 234 235 235 235 235 236 236 237 236 236 234 234 235 236 238 240 242 243 243 245 247 249 251 252 254 256 259 262
229 213 175 166 200 208 204 224 228 220 236 236 199 226 237 224 223 209 208 219 227 223 214 223 221 200 203 210 209 214 212 207 211 213 212 213 214 215 216 215 214 215 217 218 220 220 219 221 223 224 224 224 224 224 225 225 225 225 226 226 225 224 224 226 228 231 232 233 234 235 235 235 235 235 235 236 237 237 237 236 235 236 238 239 240 241 242 242 243 244 246 249 251 253 256 258 262
228 219 183 195 220 208 199 211 226 224 234 240 212 217 238 232 227 235 226 217 222 223 212 219 219 200 206 211 207 209 208 208 213 211 210 214 215 215 218 218 215 214 216 218 218 218 218 220 221 223 224 225 224 225 224 224 224 224 225 226 225 225 224 225 227 230 232 233 234 234 235 235 235 235 235 236 237 238 238 238 237 238 239 240 239 239 239 239 241 242 243 246 249 252 255 258 260
214 215 205 205 201 196 208 213 219 224 231 234 223 227 242 228 202 231 237 224 220 225 216 215 216 205 208 210 206 206 209 214 217 214 211 214 216 216 217 218 215 211 213 215 216 216 217 218 220 221 222 223 224 224 224 224 223 223 224 224 224 225 225 226 228 230 231 232 233 233 233 234 235 235 235 236 237 238 239 239 240 240 239 239 239 238 238 239 239 241 242 245 248 251 254 257 259
257 238 227 216 207 202 210 217 215 220 234 232 229 245 250 225 180 221 231 225 217 218 217 219 219 212 213 214 212 214 216 218 219 216 213 213 215 214 211 212 210 206 210 214 214 214 215 217 219 220 221 223 223 223 223 222 222 223 223 223 223 224 225 227 229 230 231 231 232 232 232 233 233 234 235 236 236 238 239 240 241 241 239 239 238 237 238 239 239 241 243 245 248 251 254 257 258